Time,TemperatureF,DewpointF,PressureIn,WindDirection,WindDirectionDegrees,WindSpeedMPH,WindSpeedGustMPH,Humidity,HourlyPrecipIn,Conditions,Clouds,dailyrainin,SoftwareType,DateUTC
2013-02-01 00:00:00,43.0,25.6,30.33,NNE,15,3.1,5.4,50,0.00,,---,0.00,VWS V14.01,2013-02-01 08:00:00,
2013-02-01 00:20:00,41.5,27.0,30.33,ESE,103,0.0,4.0,56,0.00,,---,0.00,VWS V14.01,2013-02-01 08:20:00,
2013-02-01 00:40:00,40.1,26.9,30.33,ESE,103,0.0,3.1,59,0.00,,---,0.00,VWS V14.01,2013-02-01 08:40:00,
2013-02-01 01:00:00,38.3,26.0,30.33,East,100,0.0,2.7,61,0.00,,---,0.00,VWS V14.01,2013-02-01 09:00:00,
2013-02-01 01:20:00,38.8,26.2,30.33,East,94,0.0,0.0,60,0.00,,---,0.00,VWS V14.01,2013-02-01 09:20:00,
2013-02-01 01:40:00,38.3,26.0,30.33,ENE,61,0.0,0.0,61,0.00,,---,0.00,VWS V14.01,2013-02-01 09:40:00,
2013-02-01 02:00:00,36.5,24.0,30.33,NNW,345,0.0,3.1,60,0.00,,---,0.00,VWS V14.01,2013-02-01 10:00:00,
2013-02-01 02:20:00,36.1,23.6,30.33,NNE,21,0.0,2.7,60,0.00,,---,0.00,VWS V14.01,2013-02-01 10:20:00,
2013-02-01 02:40:00,35.1,23.0,30.33,North,0,0.0,3.1,61,0.00,,---,0.00,VWS V14.01,2013-02-01 10:40:00,
2013-02-01 03:00:00,34.9,23.2,30.33,North,2,0.0,3.1,62,0.00,,---,0.00,VWS V14.01,2013-02-01 11:00:00,
2013-02-01 03:20:00,35.4,24.1,30.33,North,2,0.0,2.7,63,0.00,,---,0.00,VWS V14.01,2013-02-01 11:20:00,
2013-02-01 03:40:00,36.1,23.6,30.33,North,1,2.7,2.7,60,0.00,,---,0.00,VWS V14.01,2013-02-01 11:40:00,
2013-02-01 04:00:00,36.1,23.6,30.33,North,0,2.2,3.6,60,0.00,,---,0.00,VWS V14.01,2013-02-01 12:00:00,
2013-02-01 04:20:00,33.8,22.5,30.33,North,9,0.0,3.1,63,0.00,,---,0.00,VWS V14.01,2013-02-01 12:20:00,
2013-02-01 04:40:00,32.5,22.5,30.33,North,357,0.0,0.0,66,0.00,,---,0.00,VWS V14.01,2013-02-01 12:40:00,
2013-02-01 05:00:00,31.1,22.5,30.33,North,357,0.0,0.0,70,0.00,,---,0.00,VWS V14.01,2013-02-01 13:00:00,
2013-02-01 05:20:00,30.4,22.1,30.33,North,357,0.0,0.0,71,0.00,,---,0.00,VWS V14.01,2013-02-01 13:20:00,
2013-02-01 05:40:00,29.7,22.1,30.33,North,357,0.0,0.0,73,0.00,,---,0.00,VWS V14.01,2013-02-01 13:40:00,
2013-02-01 06:00:00,30.0,21.8,30.33,North,357,0.0,0.0,71,0.00,,---,0.00,VWS V14.01,2013-02-01 14:00:00,
2013-02-01 06:20:00,31.6,22.3,30.33,North,357,0.0,0.0,68,0.00,,---,0.00,VWS V14.01,2013-02-01 14:20:00,
2013-02-01 06:40:00,29.5,21.2,30.33,North,357,0.0,0.0,71,0.00,,---,0.00,VWS V14.01,2013-02-01 14:40:00,
2013-02-01 07:00:00,28.8,21.9,30.33,North,357,0.0,0.0,75,0.00,,---,0.00,VWS V14.01,2013-02-01 15:00:00,
2013-02-01 07:20:00,36.7,26.0,30.33,North,357,0.0,0.0,65,0.00,,---,0.00,VWS V14.01,2013-02-01 15:20:00,
2013-02-01 07:40:00,39.7,23.1,30.33,North,357,0.0,0.0,51,0.00,,---,0.00,VWS V14.01,2013-02-01 15:40:00,
2013-02-01 08:00:00,45.9,25.7,30.33,North,357,0.0,0.0,45,0.00,,---,0.00,VWS V14.01,2013-02-01 16:00:00,
2013-02-01 08:20:00,53.2,31.3,30.33,ESE,122,2.7,6.3,43,0.00,,---,0.00,VWS V14.01,2013-02-01 16:20:00,
2013-02-01 08:40:00,57.0,34.2,30.33,ESE,110,3.6,7.6,42,0.00,,---,0.00,VWS V14.01,2013-02-01 16:40:00,
2013-02-01 09:00:00,58.1,35.2,30.33,SE,126,4.0,6.3,42,0.00,,---,0.00,VWS V14.01,2013-02-01 17:00:00,
2013-02-01 09:20:00,58.8,35.8,30.33,SE,128,3.1,6.3,42,0.00,,---,0.00,VWS V14.01,2013-02-01 17:20:00,
2013-02-01 09:40:00,60.1,36.9,30.36,ESE,106,3.6,7.6,42,0.00,,---,0.00,VWS V14.01,2013-02-01 17:40:00,
2013-02-01 10:00:00,60.1,36.9,30.36,East,84,5.8,7.6,42,0.00,,---,0.00,VWS V14.01,2013-02-01 18:00:00,
2013-02-01 10:20:00,60.8,37.0,30.36,SE,145,5.4,8.7,41,0.00,,---,0.00,VWS V14.01,2013-02-01 18:20:00,
2013-02-01 10:40:00,62.4,38.4,30.36,ENE,63,3.1,10.1,41,0.00,,---,0.00,VWS V14.01,2013-02-01 18:40:00,
2013-02-01 11:00:00,65.8,40.9,30.36,ENE,74,2.7,5.8,40,0.00,,---,0.00,VWS V14.01,2013-02-01 19:00:00,
2013-02-01 11:20:00,68.0,42.8,30.36,SE,135,5.4,8.7,40,0.00,,---,0.00,VWS V14.01,2013-02-01 19:20:00,
2013-02-01 11:40:00,64.2,40.0,30.36,South,179,5.4,12.3,41,0.00,,---,0.00,VWS V14.01,2013-02-01 19:40:00,
2013-02-01 12:00:00,65.8,40.9,30.36,South,170,5.4,11.9,40,0.00,,---,0.00,VWS V14.01,2013-02-01 20:00:00,
2013-02-01 12:20:00,70.9,44.7,30.36,South,190,2.7,10.5,39,0.00,,---,0.00,VWS V14.01,2013-02-01 20:20:00,
2013-02-01 12:40:00,74.7,47.4,30.33,ESE,114,0.0,6.7,38,0.00,,---,0.00,VWS V14.01,2013-02-01 20:40:00,
2013-02-01 13:00:00,75.2,47.9,30.33,SE,132,3.1,6.7,38,0.00,,---,0.00,VWS V14.01,2013-02-01 21:00:00,
2013-02-01 13:20:00,73.4,46.3,30.33,SSE,164,4.0,8.7,38,0.00,,---,0.00,VWS V14.01,2013-02-01 21:20:00,
2013-02-01 13:40:00,71.4,45.2,30.33,SE,132,5.4,8.1,39,0.00,,---,0.00,VWS V14.01,2013-02-01 21:40:00,
2013-02-01 14:00:00,72.5,46.2,30.33,SE,134,4.0,8.3,39,0.00,,---,0.00,VWS V14.01,2013-02-01 22:00:00,
2013-02-01 14:20:00,67.8,42.6,30.33,SSW,196,4.0,8.1,40,0.00,,---,0.00,VWS V14.01,2013-02-01 22:20:00,
2013-02-01 14:40:00,69.4,44.1,30.33,SSW,196,3.6,7.6,40,0.00,,---,0.00,VWS V14.01,2013-02-01 22:40:00,
2013-02-01 15:00:00,69.3,43.9,30.33,SE,128,4.0,6.3,40,0.00,,---,0.00,VWS V14.01,2013-02-01 23:00:00,
2013-02-01 15:20:00,70.2,44.1,30.33,SE,145,4.0,7.6,39,0.00,,---,0.00,VWS V14.01,2013-02-01 23:20:00,
2013-02-01 15:40:00,64.0,39.9,30.33,SSE,154,4.9,8.1,41,0.00,,---,0.00,VWS V14.01,2013-02-01 23:40:00,
2013-02-01 16:00:00,62.6,38.6,30.33,SSE,161,3.1,10.1,41,0.00,,---,0.00,VWS V14.01,2013-02-02 00:00:00,
2013-02-01 16:20:00,57.2,34.3,30.33,South,181,3.1,7.2,42,0.00,,---,0.00,VWS V14.01,2013-02-02 00:20:00,
2013-02-01 16:40:00,53.8,31.8,30.33,SE,130,3.1,6.3,43,0.00,,---,0.00,VWS V14.01,2013-02-02 00:40:00,
2013-02-01 17:00:00,50.7,30.7,30.33,SE,139,2.7,5.4,46,0.00,,---,0.00,VWS V14.01,2013-02-02 01:00:00,
2013-02-01 17:20:00,49.3,31.0,30.33,SE,144,2.2,4.0,49,0.00,,---,0.00,VWS V14.01,2013-02-02 01:20:00,
2013-02-01 17:40:00,47.7,30.9,30.33,ESE,117,0.0,4.0,52,0.00,,---,0.00,VWS V14.01,2013-02-02 01:40:00,
2013-02-01 18:00:00,45.5,31.2,30.33,East,96,0.0,3.1,57,0.00,,---,0.00,VWS V14.01,2013-02-02 02:00:00,
2013-02-01 18:20:00,44.6,30.8,30.36,ESE,104,0.0,2.7,58,0.00,,---,0.00,VWS V14.01,2013-02-02 02:20:00,
2013-02-01 18:40:00,44.4,31.0,30.36,ESE,104,0.0,0.0,59,0.00,,---,0.00,VWS V14.01,2013-02-02 02:40:00,
2013-02-01 19:00:00,43.2,29.4,30.36,ESE,104,0.0,0.0,58,0.00,,---,0.00,VWS V14.01,2013-02-02 03:00:00,
2013-02-01 19:20:00,43.9,26.5,30.36,SE,125,0.0,3.6,50,0.00,,---,0.00,VWS V14.01,2013-02-02 03:20:00,
2013-02-01 19:40:00,45.3,26.3,30.36,ESE,112,0.0,2.7,47,0.00,,---,0.00,VWS V14.01,2013-02-02 03:40:00,
2013-02-01 20:00:00,44.1,26.6,30.36,East,87,0.0,0.0,50,0.00,,---,0.00,VWS V14.01,2013-02-02 04:00:00,
2013-02-01 20:20:00,46.4,27.3,30.36,NE,37,2.2,4.0,47,0.00,,---,0.00,VWS V14.01,2013-02-02 04:20:00,
2013-02-01 20:40:00,44.2,25.8,30.36,ESE,105,0.0,2.7,48,0.00,,---,0.00,VWS V14.01,2013-02-02 04:40:00,
2013-02-01 21:00:00,44.2,25.8,30.39,East,86,3.1,3.6,48,0.00,,---,0.00,VWS V14.01,2013-02-02 05:00:00,
2013-02-01 21:20:00,44.2,26.8,30.39,East,96,0.0,3.6,50,0.00,,---,0.00,VWS V14.01,2013-02-02 05:20:00,
2013-02-01 21:40:00,44.8,27.3,30.39,ESE,109,2.2,4.0,50,0.00,,---,0.00,VWS V14.01,2013-02-02 05:40:00,
2013-02-01 22:00:00,43.2,27.2,30.39,ENE,72,0.0,2.2,53,0.00,,---,0.00,VWS V14.01,2013-02-02 06:00:00,
2013-02-01 22:20:00,45.1,26.1,30.39,NE,46,0.0,3.1,47,0.00,,---,0.00,VWS V14.01,2013-02-02 06:20:00,
2013-02-01 22:40:00,42.8,27.8,30.39,ESE,106,0.0,3.1,55,0.00,,---,0.00,VWS V14.01,2013-02-02 06:40:00,
2013-02-01 23:00:00,41.5,28.3,30.39,NNW,342,0.0,4.0,59,0.00,,---,0.00,VWS V14.01,2013-02-02 07:00:00,
2013-02-01 23:20:00,41.9,28.6,30.39,East,83,0.0,0.0,59,0.00,,---,0.00,VWS V14.01,2013-02-02 07:20:00,
2013-02-01 23:40:00,40.1,27.8,30.39,NE,56,0.0,2.2,61,0.00,,---,0.00,VWS V14.01,2013-02-02 07:40:00,